TimeMST,TemperatureF,Dew PointF,Humidity,Sea Level PressureIn,VisibilityMPH,Wind Direction,Wind SpeedMPH,Gust SpeedMPH,PrecipitationIn,Events,Conditions,WindDirDegrees,DateUTC
12:33 AM,33.8,30.2,87,30.29,10.0,West,3.5,-,N/A,,Overcast,280,2013-01-25 07:33:00
12:53 AM,33.1,30.0,89,30.27,10.0,West,4.6,-,N/A,,Overcast,270,2013-01-25 07:53:00
1:32 AM,33.8,30.2,87,30.27,10.0,NW,6.9,-,0.00,,Overcast,320,2013-01-25 08:32:00
1:53 AM,30.9,30.0,96,30.28,1.0,South,6.9,-,0.00,,Overcast,190,2013-01-25 08:53:00
2:00 AM,30.2,30.2,100,30.29,0.5,SSW,5.8,-,N/A,Fog,Light Freezing Fog,210,2013-01-25 09:00:00
2:07 AM,32.0,30.2,93,30.29,1.8,SW,5.8,-,N/A,,Overcast,230,2013-01-25 09:07:00
2:14 AM,32.0,30.2,93,30.29,8.0,SW,4.6,-,N/A,,Overcast,220,2013-01-25 09:14:00
2:53 AM,32.0,30.0,92,30.27,10.0,Calm,Calm,-,N/A,,Overcast,0,2013-01-25 09:53:00
3:38 AM,32.0,30.2,93,30.27,2.5,SW,6.9,-,N/A,,Overcast,220,2013-01-25 10:38:00
3:53 AM,32.0,30.9,96,30.25,2.5,SW,6.9,-,N/A,,Overcast,220,2013-01-25 10:53:00
4:00 AM,32.0,30.2,93,30.26,3.0,SW,8.1,-,N/A,,Overcast,230,2013-01-25 11:00:00
4:08 AM,32.0,30.2,93,30.26,1.8,SW,8.1,-,N/A,,Overcast,230,2013-01-25 11:08:00
4:16 AM,32.0,30.2,93,30.25,1.0,SW,8.1,-,N/A,,Overcast,230,2013-01-25 11:16:00
4:23 AM,32.0,30.2,93,30.25,0.5,SW,8.1,-,N/A,Fog,Fog,230,2013-01-25 11:23:00
4:43 AM,32.0,30.2,93,30.25,0.2,SW,8.1,-,N/A,Fog,Fog,230,2013-01-25 11:43:00
4:53 AM,32.0,30.9,96,30.25,0.2,SW,10.4,-,N/A,Fog,Fog,220,2013-01-25 11:53:00
5:00 AM,32.0,30.2,93,30.25,0.5,SW,9.2,-,N/A,Fog,Fog,220,2013-01-25 12:00:00
5:53 AM,32.0,30.9,96,30.25,0.2,SW,6.9,-,N/A,Fog,Fog,230,2013-01-25 12:53:00
6:29 AM,32.0,30.2,93,30.26,0.2,SW,6.9,-,N/A,Fog,Fog,230,2013-01-25 13:29:00
6:53 AM,32.0,30.9,96,30.27,0.5,SW,8.1,-,N/A,Fog,Fog,230,2013-01-25 13:53:00
7:04 AM,32.0,30.2,93,30.26,1.0,SW,6.9,-,N/A,,Overcast,230,2013-01-25 14:04:00
7:09 AM,32.0,30.2,93,30.27,2.0,SW,6.9,-,N/A,,Overcast,230,2013-01-25 14:09:00
7:17 AM,32.0,30.2,93,30.27,5.0,WSW,8.1,-,N/A,,Overcast,240,2013-01-25 14:17:00
7:51 AM,32.0,30.2,93,30.26,10.0,WSW,6.9,-,N/A,,Overcast,250,2013-01-25 14:51:00
7:53 AM,32.0,30.0,92,30.27,10.0,WSW,6.9,-,N/A,,Overcast,250,2013-01-25 14:53:00
8:53 AM,32.0,30.9,96,30.27,9.0,WSW,5.8,-,N/A,,Overcast,250,2013-01-25 15:53:00
8:58 AM,32.0,30.2,93,30.26,2.5,WSW,6.9,-,N/A,,Overcast,240,2013-01-25 15:58:00
9:00 AM,32.0,30.2,93,30.26,0.8,WSW,5.8,-,N/A,,Overcast,240,2013-01-25 16:00:00
9:21 AM,32.0,30.2,93,30.26,1.8,SW,6.9,-,N/A,,Overcast,220,2013-01-25 16:21:00
9:23 AM,32.0,30.2,93,30.26,3.0,SW,6.9,-,N/A,,Overcast,230,2013-01-25 16:23:00
9:53 AM,33.1,30.9,92,30.27,10.0,WSW,5.8,-,N/A,,Overcast,240,2013-01-25 16:53:00
10:53 AM,33.1,30.9,92,30.27,10.0,WSW,8.1,-,N/A,,Overcast,240,2013-01-25 17:53:00
11:53 AM,34.0,30.9,89,30.24,10.0,West,4.6,-,N/A,,Overcast,260,2013-01-25 18:53:00
12:53 PM,36.0,30.9,82,30.20,10.0,SW,8.1,-,N/A,,Overcast,230,2013-01-25 19:53:00
1:53 PM,36.0,30.9,82,30.18,10.0,SSW,6.9,-,N/A,,Overcast,210,2013-01-25 20:53:00
2:53 PM,36.0,30.9,82,30.17,10.0,SW,8.1,-,N/A,,Overcast,230,2013-01-25 21:53:00
3:53 PM,36.0,30.0,79,30.17,10.0,SW,6.9,-,N/A,,Overcast,230,2013-01-25 22:53:00
4:53 PM,36.0,28.9,76,30.16,10.0,SSW,6.9,-,N/A,,Overcast,210,2013-01-25 23:53:00
5:53 PM,35.1,28.9,78,30.14,10.0,SW,5.8,-,N/A,,Overcast,220,2013-01-26 00:53:00
6:53 PM,34.0,28.0,79,30.15,10.0,SW,8.1,-,N/A,,Partly Cloudy,220,2013-01-26 01:53:00
7:53 PM,33.1,28.0,82,30.14,10.0,SSW,8.1,-,N/A,,Overcast,200,2013-01-26 02:53:00
8:53 PM,34.0,28.9,82,30.13,10.0,South,6.9,-,N/A,,Overcast,180,2013-01-26 03:53:00
9:53 PM,33.1,28.9,85,30.12,10.0,WSW,6.9,-,N/A,,Overcast,240,2013-01-26 04:53:00
10:53 PM,30.0,26.1,85,30.12,10.0,WSW,8.1,-,N/A,,Scattered Clouds,240,2013-01-26 05:53:00
11:53 PM,32.0,28.0,85,30.11,10.0,South,4.6,-,N/A,,Overcast,180,2013-01-26 06:53:00